Location: Utrecht
(52.0917°N, 5.1178°E)
Time: 00:29:05
(UTC+02:00)

Tiangong 1 - Visible Passes

Search period start: 25 June 2017 00:00
Search period end: 05 July 2017 00:00
Orbit: 321 x 345 km, 42.8° (Epoch: 23 June)

Date Brightness Start Highest point End Pass type
(mag) Time Alt. Az. Time Alt. Az. Time Alt. Az.
25 Jun 3.2 00:03:09 10° SSW 00:03:17 10° SSW 00:03:17 10° SSW visible
26 Jun 3.0 23:06:20 10° SSW 23:07:38 12° S 23:08:52 10° SSE visible
27 Jun 3.2 23:26:12 10° SSW 23:26:34 10° SSW 23:26:57 10° S visible
